OpenBCM V1.13 (Linux)

Packet Radio Mailbox

DB0FHN

[JN59NK Nuernberg]

 Login: GUEST





  
LU9DCE > KEP      01.12.19 20:41l 243 Lines 12007 Bytes #999 (0) @ WW
BID : 4218_LU9DCE
Read: DJ6UX DF7EAV GUEST
Subj: TLE 01 12
Path: DB0FHN<DB0FFL<OE5XBL<OE5XBR<OE1XAB<HG8LXL<XE1FH<N3HYM<N7HPX<LU9DCE
Sent: 191201/1600Z 4218@LU9DCE.TOR.BA.ARG.SOAM LinBPQ6.0.19

            __    _  _  ___  ____   ___  ____    ____  ____  ____
           (  )  / )( \/ _ \(    \ / __)(  __)  (  _ \(  _ \/ ___)
           / (_/\) \/ (\__  )) D (( (__  ) _)    ) _ ( ) _ (\___ \
           \____/\____/(___/(____/ \___)(____)  (____/(____/(____/
               ESTACION DE PACKET RADIO - BUENOS AIRES (GF05OM)
                   BOLETINES INFORMATIVOS PROGRAMADOS (BIP)
                  SLACKWARE LINUX - HELLOCODELINUX@GMAIL.COM
+----------------------------------------------------------------------------+
OSCAR 7
1  7530U 74089B   19334.82713062 -.00000036 +00000-0 +57950-4 0  9992
2  7530 101.7701 300.9341 0012450 029.4210 084.4521 12.53641001060973
OSCAR 11 (UoSAT 2)
1 14781U 84021B   19335.13070812  .00000046  00000-0  11694-4 0  9994
2 14781  97.6003 351.9278 0009614 130.1814 230.0244 14.83124264923285
OSCAR 19 (LUSAT)
1 20442U 90005G   19334.80962371  .00000011  00000-0  20440-4 0  9998
2 20442  98.6675 276.6596 0012316  27.6964 332.4874 14.32939182560029
EYESAT A
1 22825U 93061C   19335.53016921 -.00000021  00000-0  99561-5 0  9995
2 22825  98.9161 328.0585 0007557 232.0837 127.9661 14.30072354365651
ITAMSAT
1 22826U 93061D   19335.21336896 -.00000010  00000-0  14268-4 0  9995
2 22826  98.9102 327.7050 0008217 220.8318 139.2248 14.30406813365819
RADIO ROSTO
1 23439U 94085A   19334.74632972 -.00000026 +00000-0 +47377-3 0  9997
2 23439 064.8150 209.2090 0145682 080.8870 280.8504 11.27569024026503
JAS 2
1 24278U 96046B   19334.81535924 +.00000003 +00000-0 +37637-4 0  9998
2 24278 098.5621 106.0297 0350521 171.8405 188.8646 13.53094810149888
TECHSAT 1B
1 25397U 98043D   19335.41174637 -.00000002  00000-0  18357-4 0  9995
2 25397  98.7064 273.6608 0000279 321.3405  38.7754 14.23675197111451
ISS (ZARYA)
1 25544U 98067A   19335.31996959  .00019643  00000-0  34988-3 0  9990
2 25544  51.6445 252.6885 0007008 345.8788 160.1404 15.50096138201187
PCSAT
1 26931U 01043C   19334.42764467 -.00000039  00000-0  16665-4 0  9990
2 26931  67.0511 298.5756 0007328 265.0334  94.9931 14.30560242948539
SAUDISAT 1C
1 27607U 02058C   19335.52513558 -.00000034  00000-0  16096-4 0  9996
2 27607  64.5554 262.5751 0071004 223.9760 135.5680 14.75592416911500
CUTE-1
1 27844U 03031E   19334.77298142  .00000036  00000-0  35794-4 0  9993
2 27844  98.6840 340.5190 0008815 273.9513  86.0656 14.22208272851753
CUBESAT XI 4
1 27848U 03031J   19335.51602387  .00000023  00000-0  30217-4 0  9991
2 27848  98.6914 341.7830 0008709 284.8084  75.2128 14.21799574851707
MOZHAYETS 4
1 27939U 03042A   19335.40463443  .00000026  00000-0  13333-4 0  9993
2 27939  98.0640 108.2313 0011761 261.8006  98.1879 14.66820790864830
CUBESAT XI 5
1 28895U 05043F   19334.80631687  .00000132  00000-0  34283-4 0  9993
2 28895  97.9823 112.1203 0016723 186.3356 173.7638 14.63716088751634
CUTE-1.7+APD II
1 32785U 08021C   19335.20688036  .00000192  00000-0  26264-4 0  9996
2 32785  97.5586 327.1958 0014531  75.8133 284.4697 14.88382005628301
DELFI C3
1 32789U 08021G   19335.13896112  .00001402  00000-0  96813-4 0  9990
2 32789  97.4451  19.6613 0010605 279.4228  80.5801 15.07294122631884
SEEDS
1 32791U 08021J   19335.48238616  .00000412  00000-0  46998-4 0  9999
2 32791  97.5324 333.5652 0014467  49.9560 310.2926 14.90922505628811
YUBELEINY
1 32953U 08025A   19335.52183295  .00000021  00000-0  75656-4 0  9999
2 32953  82.5072  41.6318 0020237 127.0968 233.1961 12.43092477522911
PRISM (HITOMI)
1 33493U 09002B   19335.52582557  .00000305  00000-0  32166-4 0  9993
2 33493  98.1278 262.8036 0015227 358.3489   1.7679 14.96822110589953
KKS-1 (KISEKI)
1 33499U 09002H   19335.14596090  .00000090  00000-0  21308-4 0  9991
2 33499  98.3349 179.0345 0010015  45.4102 314.7922 14.75484205583620
SWISSCUBE
1 35932U 09051B   19335.11199626  .00000112  00000-0  36290-4 0  9991
2 35932  98.5995 146.0904 0007976  26.0464 334.1133 14.56334980540857
BEESAT
1 35933U 09051C   19335.44868850  .00000099  00000-0  33298-4 0  9999
2 35933  98.6008 148.2602 0006426  39.2032 320.9629 14.56417934541012
ITUPSAT 1
1 35935U 09051E   19335.46479702  .00000076  00000-0  28668-4 0  9997
2 35935  98.6117 148.5008 0008684  34.9827 325.1938 14.55571240540750
XIWANG-1 (HOPE-1)
1 36122U 09072B   19335.19776582 -.00000025  00000-0  44895-4 0  9990
2 36122 100.0798 329.8413 0007026 326.5950  33.4732 13.16352379478658
TISAT 1
1 36799U 10035E   19335.09159015  .00000164  00000-0  22655-4 0  9999
2 36799  98.1742 132.9617 0011000 262.7228  97.2739 14.91215475509412
JUGNU
1 37839U 11058B   19335.52828281  .00000302  00000-0  19406-4 0  9991
2 37839  19.9623  49.1103 0019027 355.8699 125.9286 14.12665835420734
SRMSAT
1 37841U 11058D   19335.52172976  .00000276  00000-0  62005-5 0  9991
2 37841  19.9712 109.3560 0011741 218.3497 207.8305 14.10644359420138
M-CUBED/EXP-1 PRIME
1 37855U 11061F   19334.80786208  .00001488  00000-0  81564-4 0  9995
2 37855 101.7243 315.2470 0172359 307.2825  51.2778 15.05841516441627
HORYU 2
1 38340U 12025D   19335.35370816  .00000147  00000-0  29429-4 0  9994
2 38340  98.3099  18.7482 0010570 320.9044  39.1400 14.75781589405598
STRAND 1
1 39090U 13009E   19335.51495379  .00000031  00000-0  25806-4 0  9997
2 39090  98.4702 178.5671 0009604 150.2254 209.9480 14.35107685354178
SOMP
1 39134U 13015E   19335.25778178  .00000826  00000-0  46408-4 0  9998
2 39134  64.8622 203.8961 0037730 276.7713  82.9122 15.20542155365763
BEESAT 3
1 39135U 13015F   19335.14755431  .00000682  00000-0  42972-4 0  9996
2 39135  64.8665 224.9039 0041476 280.0491  79.5956 15.17766935365356
BEESAT 2
1 39136U 13015G   19335.11599704  .00000848  00000-0  52108-4 0  9999
2 39136  64.8693 229.3172 0030503 285.4502  74.3255 15.17184241365265
CUBEBUG 1
1 39153U 13018D   19335.54067879  .00000192  00000-0  31975-4 0  9992
2 39153  97.9820  72.7700 0017358  25.5671 334.6395 14.80632502356357
ZACUBE
1 39417U 13066B   19335.48931672  .00000168  00000-0  27495-4 0  9997
2 39417  97.5615 339.6661 0058177 209.1209 150.6757 14.81185895325588
TRITON 1
1 39427U 13066M   19335.51016285  .00000181  00000-0  36981-4 0  9991
2 39427  97.6986 302.8355 0113717 355.3595   4.6547 14.67913746322666
GOMX 1
1 39430U 13066Q   19335.42055106  .00000203  00000-0  45231-4 0  9993
2 39430  97.7679 281.2313 0152364  91.6608 270.2051 14.59316098320779
HUMSAT D
1 39433U 13066T   19335.37318074  .00000190  00000-0  23674-4 0  9998
2 39433  97.5337  15.9341 0032240 107.2390 253.2362 14.92315106327786
CUBEBUG 2
1 39440U 13066AA  19335.51557718  .00000175  00000-0  31451-4 0  9997
2 39440  97.6134 324.2578 0078723 266.2938  92.9268 14.75924642324432
FUNCUBE 1
1 39444U 13066AE  19335.53270068  .00000228  00000-0  34321-4 0  9991
2 39444  97.5579 341.8033 0057463 202.0237 157.8508 14.82019477324490
UWE-3
1 39446U 13066AG  19335.50647712  .00000157  00000-0  27666-4 0  9999
2 39446  97.5868 331.4155 0068712 238.3678 121.0818 14.78458611323761
SPROUT
1 39770U 14029E   19335.32191319  .00000542  00000-0  65895-4 0  9990
2 39770  97.8910  77.6183 0007882 262.1175  97.9144 14.87522740299456
UNISAT 6
1 40012U 14033C   19335.17589839  .00000126  00000-0  26250-4 0  9997
2 40012  97.7326 194.4493 0057006 284.2992  75.1891 14.74038988293064
DUCHIFAT 1
1 40021U 14033M   19335.54343768  .00000491  00000-0  55838-4 0  9996
2 40021  97.9307 260.7208 0011832 219.2319 140.8042 14.90750989296256
QB50P1
1 40025U 14033R   19334.74659876  .00000231  00000-0  30493-4 0  9993
2 40025  97.9084 254.1606 0011226 233.1730 126.8457 14.89029527295887
CHUBUSAT 1
1 40300U 14070C   19335.24708355  .00000684  00000-0  32578-4 0  9991
2 40300  97.3136  45.1186 0019430 189.5455 219.4580 15.22271610281206
NUDT-PHONESAT
1 40900U 15049B   19335.54361674  .00001927  00000-0  84014-4 0  9999
2 40900  97.4355 343.2923 0011876 330.0002 152.2947 15.23343293232906
ZDPS 2A
1 40901U 15049C   19335.49123637  .00000885  00000-0  46831-4 0  9996
2 40901  97.4611 338.9535 0013258 353.5755 158.8891 15.17958045232385
ZDPS 2B
1 40902U 15049D   19335.52662939  .00001191  00000-0  62059-4 0  9995
2 40902  97.4566 336.3540 0013254 350.6225 127.4542 15.17855916232365
XW-2A
1 40903U 15049E   19335.58393015  .00001618  00000-0  39425-4 0  9993
2 40903  97.3167  19.1377 0011624 264.1971 252.2279 15.42377717235815
KAITUO 1A
1 40904U 15049F   19335.53937791  .00000692  00000-0  39947-4 0  9994
2 40904  97.4713 334.7659 0014681 359.8125 120.0311 15.15523471232111
OBJECT G
1 40905U 15049G   19335.53979484  .00000559  00000-0  33944-4 0  9993
2 40905  97.4771 332.1485 0015534 355.0368 120.3835 15.14405561231975
XW-2C
1 40906U 15049H   19335.44787473  .00000371  00000-0  22832-4 0  9995
2 40906  97.4717 334.8392 0014471 350.8414 173.9796 15.15842576232104
XW-2D
1 40907U 15049J   19335.52725017  .00000814  00000-0  45699-4 0  9999
2 40907  97.4700 334.6019 0013811 348.2298 127.2436 15.16049667232136
LILACSAT 2
1 40908U 15049K   19335.57280637  .00000043  00000-0  60091-5 0  9997
2 40908  97.4838 333.2730 0015847 355.2380 121.5825 15.13901972231901
XW-2F
1 40910U 15049M   19335.52835527  .00001051  00000-0  55619-4 0  9998
2 40910  97.4646 336.8620 0014225 339.5514 145.4367 15.17569327232164
XW-2B
1 40911U 15049N   19335.56853014  .00000435  00000-0  26114-4 0  9997
2 40911  97.4716 335.3197 0013688 348.7115 131.5637 15.15975430232033
KAITUO 1B
1 40912U 15049P   19335.56852899  .00000988  00000-0  49107-4 0  9998
2 40912  97.4500 340.8037 0013689 318.5103 163.0123 15.19914574232500
TIANWANG 1C (TW-1C)
1 40926U 15051B   19335.42935481  .00011812  00000-0  15101-3 0  9994
2 40926  97.1144  21.5533 0008799 110.4937 306.6768 15.59337856235958
